Regional Weather Roundup
Issued by NWS

Home | Current Version | Previous Version | Text Only | Print | Product List | Glossary Off
Versions: 1 2 3 4 5 6 7 8 9 10 11 12 13 14 15 16 17 18 19 20 21 22 23 24 25 26 27 28 29 30 31 32 33 34 35 36 37 38 39 40 41 42 43 44 45 46 47 48 49 50

000
ASUS43 KLMK 291402
RWRKY
KENTUCKY REGIONAL WEATHER ROUNDUP
NATIONAL WEATHER SERVICE LOUISVILLE KY
1000 AM EDT FRI JUL 29 2016

NOTE "FAIR" INDICATES FEW OR NO CLOUDS BELOW 12,000 FEET
WITH NO SIGNIFICANT WEATHER AND/OR OBSTRUCTIONS TO VISIBILITY.

KYZ001>023-026-027-061>063-070>075-291500-
WESTERN AND SOUTH CENTRAL KENTUCKY

CITY           SKY/WX    TMP DP  RH WIND       PRES   REMARKS
PADUCAH        CLOUDY    78  72  81 SW7       29.95S
HENDERSON      CLOUDY    77  72  83 W5        29.93R
OWENSBORO      PTSUNNY   80  75  84 W7        29.95R
HOPKINSVILLE   PTSUNNY   81  75  83 SW12      29.97R
BOWLING GREEN  CLOUDY    78  72  81 SW9       29.96S
GLASGOW        NOT AVBL
$$

KYZ024-025-028>034-038-045-046-053-291500-
NORTH CENTRAL KENTUCKY

CITY           SKY/WX    TMP DP  RH WIND       PRES   REMARKS
LOUISVILLE/SDF MOSUNNY   79  70  74 VRB5      29.94S
LOUISVILLE/LOU SUNNY     79  69  71 SW7       29.95S
FORT KNOX      NOT AVBL
$$

KYZ035>037-039>044-047>052-055>060-089>105-291500-
NORTHEAST KENTUCKY

CITY           SKY/WX    TMP DP  RH WIND       PRES   REMARKS
LEXINGTON      CLOUDY    76  71  85 SW7       29.97F
COVINGTON      MOSUNNY   77  71  82 SW5       29.95S
FRANKFORT      PTSUNNY   76  70  82 SW7       29.96R
$$

KYZ054-064>069-076>088-106>120-291500-
SOUTHEAST KENTUCKY

CITY           SKY/WX    TMP DP  RH WIND       PRES   REMARKS
JACKSON        CLOUDY    72  70  93 CALM      30.01F
LONDON         CLOUDY    72  69  90 S5        30.01S FOG
SOMERSET       LGT RAIN  73  73 100 SW3       30.00S
MIDDLESBORO    CLOUDY    72  70  93 CALM      30.03S
MONTICELLO     CLOUDY   N/A N/A N/A W12       30.01S
$$





USA.gov is the U.S. government's official web portal to all federal, state and local government web resources and services.